WetterOnline ( http://www.wetteronline.de )

Wetter aktuell Plön

Aktuelles Wetter: Dörnick (28m)

6-stündlich | Neueste Meldungen
Ortszeit Temperatur Wetter
So, 27.05. 2:00 14.2° C wolkenlos
Sa, 26.05. 20:00 20.4° C bewölkt
Sa, 26.05. 14:00 22.8° C wolkenlos
Sa, 26.05. 8:00 14.7° C wolkenlos
Sa, 26.05. 2:00 11.3° C wolkenlos
Fr, 25.05. 20:00 17.5° C leicht bewölkt
Fr, 25.05. 14:00 22.6° C leicht bewölkt
Fr, 25.05. 8:00 16.9° C wolkenlos
Ortszeit Temperatur Wetter
So, 27.05. 2:30 14.0° C fast wolkenlos
So, 27.05. 2:20 14.0° C fast wolkenlos
So, 27.05. 2:10 14.1° C fast wolkenlos
So, 27.05. 2:00 14.2° C wolkenlos
So, 27.05. 1:40 14.4° C wolkenlos
So, 27.05. 1:30 14.7° C leicht bewölkt
So, 27.05. 1:00 14.9° C bedeckt
So, 27.05. 0:30 15.0° C bewölkt
So, 27.05. 0:00 15.2° C bewölkt
Sa, 26.05. 23:30 15.3° C bedeckt
Ortszeit Relative Feuchte Sichtweite
So, 27.05. 2:00 90% 7 km
Sa, 26.05. 20:00 67% 30 km
Sa, 26.05. 14:00 57% 5.0 km
Sa, 26.05. 8:00 86% 8 km
Sa, 26.05. 2:00 95% 5.0 km
Fr, 25.05. 20:00 45% 65 km
Fr, 25.05. 14:00 45% 10 km
Fr, 25.05. 8:00 66% 12 km
Ortszeit Relative Feuchte Sichtweite
So, 27.05. 2:30 92% 5.0 km
So, 27.05. 2:20 92% -
So, 27.05. 2:10 91% -
So, 27.05. 2:00 90% 7 km
So, 27.05. 1:40 88% -
So, 27.05. 1:30 86% 11 km
So, 27.05. 1:00 82% 16 km
So, 27.05. 0:30 81% 19 km
So, 27.05. 0:00 80% 22 km
Sa, 26.05. 23:30 80% 20 km
Ortszeit Niederschlagsmenge Niederschlagsart
So, 27.05. 2:00 0.0 l/m2 in 6 Std. -
Sa, 26.05. 20:00 0.0 l/m2 in 12 Std. -
Sa, 26.05. 14:00 0.0 l/m2 in 6 Std. -
Sa, 26.05. 8:00 0.0 l/m2 in 12 Std. -
Sa, 26.05. 2:00 0.0 l/m2 in 6 Std. -
Fr, 25.05. 20:00 0.0 l/m2 in 12 Std. -
Fr, 25.05. 14:00 0.0 l/m2 in 6 Std. -
Fr, 25.05. 8:00 0.0 l/m2 in 12 Std. -
Ortszeit Niederschlagsmenge Niederschlagsart
So, 27.05. 2:30 0.0 l/m2 in 1 Std. -
So, 27.05. 2:20 keine Meldung -
So, 27.05. 2:10 keine Meldung -
So, 27.05. 2:00 0.0 l/m2 in 1 Std. -
So, 27.05. 1:40 keine Meldung -
So, 27.05. 1:30 0.0 l/m2 in 1 Std. -
So, 27.05. 1:00 0.0 l/m2 in 1 Std. -
So, 27.05. 0:30 0.0 l/m2 in 1 Std. -
So, 27.05. 0:00 0.0 l/m2 in 1 Std. -
Sa, 26.05. 23:30 0.0 l/m2 in 1 Std. -
Ortszeit Stärke Spitze Richtung
km/h Bft. km/h Grad Sektor
So, 27.05. 2:00 11 2 22 40° NO
Sa, 26.05. 20:00 13 3 37 40° NO
Sa, 26.05. 14:00 17 3 30 40° NO
Sa, 26.05. 8:00 7 2 14 80° O
Sa, 26.05. 2:00 4 1 22 40° NO
Fr, 25.05. 20:00 13 3 39 60° NO
Fr, 25.05. 14:00 18 3 32 70° O
Fr, 25.05. 8:00 11 2 22 80° O
Ortszeit Stärke Spitze Richtung
km/h Bft. km/h Grad Sektor
So, 27.05. 2:30 6 1 17 50° NO
So, 27.05. 2:20 6 1 - 50° NO
So, 27.05. 2:10 9 2 - 40° NO
So, 27.05. 2:00 11 2 18 40° NO
So, 27.05. 1:40 9 2 - 30° NO
So, 27.05. 1:30 9 2 15 30° NO
So, 27.05. 1:00 7 2 14 50° NO
So, 27.05. 0:30 7 2 11 60° NO
So, 27.05. 0:00 7 2 11 40° NO
Sa, 26.05. 23:30 6 1 9 50° NO
Ortszeit Untergrenze Bedeckung Gattung
total tief tief mittel hoch
So, 27.05. 2:00 4200 m 0/8 0/8 - - -
Sa, 26.05. 20:00 6300 m 8/8 5/8 - - -
Sa, 26.05. 14:00 - 0/8 0/8 - - -
Sa, 26.05. 8:00 - 0/8 0/8 - - -
Sa, 26.05. 2:00 - 0/8 0/8 - - -
Fr, 25.05. 20:00 7500 m 3/8 0/8 - - -
Fr, 25.05. 14:00 10500 m 8/8 0/8 - - -
Fr, 25.05. 8:00 - 0/8 0/8 - - -
Ortszeit Bedeckungsgrad in Achtel und Wolkenuntergrenze
So, 27.05. 2:30 1(4200m)
So, 27.05. 2:20 1(4200m)
So, 27.05. 2:10 1(4200m)
So, 27.05. 2:00 2(4200m)
So, 27.05. 1:40 keine Wolken
So, 27.05. 1:30 2(4200m)
So, 27.05. 1:00 8(3900m)
So, 27.05. 0:30 6(3900m) 7(4500m)
So, 27.05. 0:00 7(4500m) 7(5100m) 7(5700m)
Sa, 26.05. 23:30 6(4800m) 8(5700m) 8(8400m)
Ortszeit Luftdruck NN (hPa) Tendenz (hPa in 3 Std.)
So, 27.05. 2:00 1024 - 0,3
Sa, 26.05. 20:00 1024 - 0,3
Sa, 26.05. 14:00 1024 0,0
Sa, 26.05. 8:00 1024 + 0,4
Sa, 26.05. 2:00 1024 + 0,2
Fr, 25.05. 20:00 1023 - 0,5
Fr, 25.05. 14:00 1024 0,0
Fr, 25.05. 8:00 1024 + 0,2
Ortszeit Luftdruck NN (hPa) Tendenz (hPa in 3 Std.)
So, 27.05. 2:30 1024 - 0,2
So, 27.05. 2:20 1024 keine Meldung
So, 27.05. 2:10 1024 keine Meldung
So, 27.05. 2:00 1024 - 0,3
So, 27.05. 1:40 1024 keine Meldung
So, 27.05. 1:30 1024 - 0,3
So, 27.05. 1:00 1024 - 0,2
So, 27.05. 0:30 1024 + 0,2
So, 27.05. 0:00 1024 + 0,6
Sa, 26.05. 23:30 1024 + 0,4
Ortszeit Schneehöhe (cm)
So, 27.05. 2:00 -
Sa, 26.05. 20:00 -
Sa, 26.05. 14:00 -
Sa, 26.05. 8:00 -
Sa, 26.05. 2:00 -
Fr, 25.05. 20:00 -
Fr, 25.05. 14:00 -
Fr, 25.05. 8:00 -
Ortszeit Schneehöhe (cm)
So, 27.05. 2:30 -
So, 27.05. 2:20 -
So, 27.05. 2:10 -
So, 27.05. 2:00 -
So, 27.05. 1:40 -
So, 27.05. 1:30 -
So, 27.05. 1:00 -
So, 27.05. 0:30 -
So, 27.05. 0:00 -
Sa, 26.05. 23:30 -
Link zu dieser Seite / Seite empfehlen

Das Wetter in ...